COSMOS 2251 DEB, 47048

Orbit data source: Space-Track

COSMOS 2251 DEB, 47048 is space debris in LEO originally from a launch on Wed, 16 Jun 1993 UTC launched from the Plesetsk Missile And Space Complex (PKMTR). The debris from Iridium 33, an American commercial communications satellite, has been tracked extensively since its accidental collision with the defunct Russian satellite Cosmos 2251 in 2009. This event, occurring at high speed in low Earth orbit (LEO), generated thousands of pieces of space debris, significantly increasing the risk of further collisions. The Iridium 33 debris cloud has impacted space traffic management and orbital debris mitigation strategies, making it a subject of ongoing study in space situational awareness.

Loading next visibility...
Identifier
47048, 1993-036BXC
Orbit
LEO
Country
Flag of CISCIS
Related business
Manufacturer
Unknown
Mission
Spacecraft
Bus & Motor
Unknown
Mass
Unknown
Launch date (UTC)
1993-06-16 (32 years ago)
Launch vehicle
Unknown
Launch site
Plesetsk Missile And Space Complex (PKMTR)
Object type
Payload
Rocket body
Debris
Shape & HBR
Unknown shape, 0.1 m
Radar Cross Section
Small (<0.1 m²)

Expand to show TLE details & history
Last TLE update: 1 day ago

TLE from 1 day ago
0 COSMOS 2251 DEB
1 47048U 93036BXC 25300.05082660  .00010048  00000-0  22323-2 0  9998
2 47048  73.9797  47.4780 0136793 245.6867 292.5287 14.51438613590122
Epoch: 2025-10-27T01:13Z
TLE epoch observation values (Epoch: 2025-10-27T01:13:11.418Z)
Latitude
3.02295°
Longitude
172.65806°
Altitude
687.168 km
Speed
7.532 km/s
True Right ascension
15h 06m 27s
True Declination
3° 00' 17"
Sunlit
Object was in daylight at epoch
Visualization orbit readout
Latitude
Unknown
Longitude
Unknown
Altitude
Unknown
Speed
Unknown
Apparent Right ascension
Unknown
Apparent Declination
Unknown
Sunlit
N/A
Visualization observer readout
Local Sidereal Time
04:47:03
Azimuth
Unknown
Elevation
Unknown
Doppler factor
Unknown
Orbital elements
Apogee altitude
815.643 km
Perigee altitude
621.487 km
Semi-major axis
7,096.702 km
Eccentricity
0.01368
Inclination
73.9797°
RAAN
47.478°
Arg. of periapsis
245.6867°
True anomaly
291.0714°
Mean anomaly
292.5287°
Eccentric anomaly
291.80099°
Mean motion
3.63043 °/min
Orbital period
99.16 mins
BSTAR
0.0022323
Loading maneuver chart data...
Computing Atmospheric mass density...

Documentation

Showing up to 5 results
|